Terug naar catalogus

STARLINK-33569

ActiefCommunicatieVLEO
NORAD 62769·PAYLOAD·🇺🇸 United States

Gelanceerd Jan 21, 2025 vanaf Vandenberg Space Force Base

Loading…

Volgende Passages (komende 24 uur)

TLE

VersSource: CelesTrak SupGP

Epoch: Sep 14, 2026, 20:37 UTC

1 62769C 25015M   26257.85951389 -.00037979  00000+0 -11220-2 0  2574
2 62769  53.1580 160.3338 0001281  91.0349 229.8994 15.34413778    13

Volg STARLINK-33569 in realtime met AllMySat

Download on the App Store